Weather History for Fort Bragg, NC

Change the Weather History Date:

Monday, May 20, 2013

  Actual Average Record
Temperature  
Mean Temperature 72 °F -  
Max Temperature 78 °F 79 °F 93 °F (1998)
Min Temperature 68 °F 60 °F 44 °F (2002)
Cooling Degree Days 8    
Growing Degree Days 22 (Base 50)    
Moisture  
Dew Point 69 °F    
Average Humidity 94    
Maximum Humidity 100    
Minimum Humidity 74    
Precipitation  
Precipitation 0.61 in - - ()
Sea Level Pressure  
Sea Level Pressure 30.09 in    
Wind  
Wind Speed 4 mph (South)    
Max Wind Speed 12 mph    
Max Gust Speed -    
Visibility 8 miles    
Events Rain    
Averages and records for this station are not official NWS values.
T = Trace of Precipitation, MM = Missing Value Source: NWS Daily Summary

Daily Weather History Graph

Daily Weather History Graph

Search for Another Location

Airport:

Trip Planner

Search our weather history database for the weather conditions in past years. The results will help you decide how hot, cold, wet, or windy it might be!

Date:

Astronomy

May. 20, 2013 Rise Set
Actual Time 6:08 AM EDT 8:16 PM EDT
Civil Twilight 5:39 AM EDT 8:45 PM EDT
Nautical Twilight 5:04 AM EDT 9:20 PM EDT
Astronomical Twilight 4:27 AM EDT 9:57 PM EDT
Moon 3:32 PM EDT (5/20) 2:50 AM EDT (5/20)
Length of Visible Light 15h 05m
Length of Day
14h 08m
Waxing Gibbous, 75% of the Moon is Illuminated
May 20
Waxing Gibbous
May 25
Full
May 31
Last Quarter
Jun 8
New
Jun 16
First Quarter

Hourly Weather History & Observations

Time (EDT) Temp. Dew Point Humidity Pressure Visibility Wind Dir Wind Speed Gust Speed Precip Events Conditions
12:38 AM 69.8 °F 68.0 °F 94% 30.11 in 10.0 mi SE 4.6 mph - N/A Rain Light Rain
12:58 AM 69.1 °F 68.7 °F 99% 30.11 in 10.0 mi SSE 3.5 mph - 0.00 in Rain Light Rain
1:06 AM 69.8 °F 68.0 °F 94% 30.10 in 10.0 mi SSE 4.6 mph - N/A   Partly Cloudy
1:58 AM 68.9 °F 68.5 °F 99% 30.10 in 10.0 mi SSE 4.6 mph - 0.01 in   Partly Cloudy
2:58 AM 68.7 °F 68.4 °F 99% 30.08 in 10.0 mi SSE 5.8 mph - N/A   Scattered Clouds
3:35 AM 69.8 °F 68.0 °F 94% 30.08 in 10.0 mi SSE 3.5 mph - N/A   Mostly Cloudy
3:47 AM 69.8 °F 68.0 °F 94% 30.08 in 10.0 mi SSE 2.3 mph - N/A   Mostly Cloudy
3:58 AM 69.1 °F 68.7 °F 99% 30.09 in 10.0 mi Variable 3.5 mph - N/A   Mostly Cloudy
4:18 AM 69.8 °F 68.0 °F 94% 30.08 in 10.0 mi Variable 2.3 mph - N/A   Mostly Cloudy
4:20 AM 69.8 °F 68.0 °F 94% 30.08 in 10.0 mi SSW 3.5 mph - N/A   Mostly Cloudy
4:26 AM 69.8 °F 68.0 °F 94% 30.08 in 10.0 mi SSW 2.3 mph - N/A   Overcast
4:32 AM 69.8 °F 68.0 °F 94% 30.08 in 10.0 mi SW 2.3 mph - N/A   Overcast
4:38 AM 69.8 °F 68.0 °F 94% 30.08 in 10.0 mi Calm Calm - N/A   Overcast
4:39 AM 69.8 °F 68.0 °F 94% 30.08 in 10.0 mi Calm Calm - N/A Rain Light Rain
4:58 AM 69.1 °F 68.9 °F 99% 30.09 in 10.0 mi SW 2.3 mph - 0.00 in Rain Light Rain
5:10 AM 69.8 °F 69.8 °F 100% 30.09 in 8.0 mi WSW 4.6 mph - N/A Rain Light Rain
5:14 AM 69.8 °F 68.0 °F 94% 30.09 in 3.0 mi West 4.6 mph - N/A Rain Heavy Rain
5:16 AM 69.8 °F 68.0 °F 94% 30.09 in 2.5 mi West 4.6 mph - N/A Rain Heavy Rain
5:24 AM 68.0 °F 68.0 °F 100% 30.09 in 3.0 mi SSW 2.3 mph - N/A Rain Rain
5:32 AM 68.0 °F 68.0 °F 100% 30.09 in 5.0 mi SSW 2.3 mph - N/A Rain Rain
5:34 AM 68.0 °F 68.0 °F 100% 30.09 in 5.0 mi SSW 2.3 mph - N/A Rain Rain
5:56 AM 68.0 °F 68.0 °F 100% 30.09 in 3.0 mi South 2.3 mph - N/A Rain Rain
5:58 AM 68.7 °F 68.5 °F 99% 30.10 in 3.0 mi SSE 2.3 mph - 0.20 in Rain Rain
6:02 AM 68.0 °F 68.0 °F 100% 30.09 in 4.0 mi SE 2.3 mph - N/A Rain Rain
6:04 AM 68.0 °F 68.0 °F 100% 30.09 in 4.0 mi ESE 2.3 mph - N/A Rain Rain
6:06 AM 68.0 °F 68.0 °F 100% 30.09 in 5.0 mi ESE 1.2 mph - N/A Rain Rain
6:10 AM 68.0 °F 68.0 °F 100% 30.09 in 5.0 mi South 1.2 mph - N/A Rain Light Rain
6:24 AM 68.0 °F 68.0 °F 100% 30.09 in 4.0 mi Calm Calm - N/A Rain Rain
6:34 AM 69.8 °F 68.0 °F 94% 30.10 in 3.0 mi SSE 2.3 mph - N/A Rain Rain
6:54 AM 69.8 °F 68.0 °F 94% 30.10 in 6.0 mi South 3.5 mph - N/A Rain Light Rain
6:55 AM 69.8 °F 68.0 °F 94% 30.10 in 6.0 mi South 4.6 mph - N/A Rain Light Rain
6:57 AM 69.8 °F 68.0 °F 94% 30.10 in 5.0 mi SSE 4.6 mph - N/A Rain Light Rain
6:58 AM 69.8 °F 68.0 °F 94% 30.11 in 5.0 mi SSE 4.6 mph - 0.13 in Rain Light Rain
7:02 AM 69.8 °F 68.0 °F 94% 30.10 in 5.0 mi South 4.6 mph - N/A Rain Light Rain
7:04 AM 69.8 °F 68.0 °F 94% 30.10 in 5.0 mi South 5.8 mph - N/A Rain Light Rain
7:12 AM 69.8 °F 69.8 °F 100% 30.10 in 9.0 mi South 3.5 mph - N/A Rain Light Rain
7:16 AM 69.8 °F 69.8 °F 100% 30.10 in 6.0 mi South 3.5 mph - N/A Rain Light Rain
7:20 AM 69.8 °F 69.8 °F 100% 30.10 in 6.0 mi WSW 4.6 mph - N/A Rain Light Rain
7:24 AM 69.8 °F 69.8 °F 100% 30.11 in 2.5 mi WSW 9.2 mph - N/A Rain Light Rain
7:28 AM 69.8 °F 68.0 °F 94% 30.11 in 1.5 mi WSW 9.2 mph - N/A Rain Rain
7:30 AM 69.8 °F 68.0 °F 94% 30.11 in 1.2 mi SW 8.1 mph - N/A Rain Rain
7:34 AM 69.8 °F 68.0 °F 94% 30.11 in 1.5 mi SSW 5.8 mph - N/A Rain Light Rain
7:38 AM 68.0 °F 68.0 °F 100% 30.11 in 2.0 mi Variable 4.6 mph - N/A Rain Heavy Rain
7:40 AM 68.0 °F 68.0 °F 100% 30.12 in 3.0 mi SSW 3.5 mph - N/A Rain Light Rain
7:42 AM 68.0 °F 68.0 °F 100% 30.12 in 3.0 mi Variable 5.8 mph - N/A Rain Light Rain
7:58 AM 68.9 °F 68.5 °F 99% 30.13 in 5.0 mi SW 5.8 mph - 0.22 in Rain Light Rain
8:04 AM 68.0 °F 68.0 °F 100% 30.12 in 10.0 mi SW 4.6 mph - N/A Rain Light Rain
8:08 AM 68.0 °F 68.0 °F 100% 30.12 in 8.0 mi SW 5.8 mph - N/A Rain Rain
8:18 AM 68.0 °F 68.0 °F 100% 30.12 in 10.0 mi SW 5.8 mph - N/A Rain Light Rain
8:20 AM 68.0 °F 68.0 °F 100% 30.12 in 10.0 mi SW 5.8 mph - N/A Rain Light Rain
8:26 AM 68.0 °F 68.0 °F 100% 30.13 in 10.0 mi SSW 4.6 mph - N/A Rain Light Rain
8:58 AM 68.4 °F 68.0 °F 99% 30.14 in 10.0 mi South 5.8 mph - 0.02 in   Light Drizzle
9:02 AM 68.0 °F 68.0 °F 100% 30.13 in 10.0 mi South 4.6 mph - N/A   Partly Cloudy
9:04 AM 68.0 °F 68.0 °F 100% 30.13 in 10.0 mi South 4.6 mph - N/A   Partly Cloudy
9:22 AM 68.0 °F 68.0 °F 100% 30.13 in 10.0 mi SSE 5.8 mph - N/A Rain Light Rain
9:24 AM 68.0 °F 68.0 °F 100% 30.13 in 10.0 mi SSE 6.9 mph - N/A Rain Light Rain
9:38 AM 69.8 °F 68.0 °F 94% 30.13 in 10.0 mi South 5.8 mph - N/A Rain Light Rain
9:55 AM 68.9 °F 68.5 °F 99% 30.13 in 10.0 mi South 6.9 mph - 0.01 in Rain Light Rain
10:20 AM 69.8 °F 69.8 °F 100% 30.13 in 10.0 mi South 4.6 mph - N/A   Overcast
10:29 AM 69.8 °F 69.8 °F 100% 30.13 in 10.0 mi South 5.8 mph - N/A Rain Light Rain
10:46 AM 69.8 °F 69.8 °F 100% 30.13 in 10.0 mi South 6.9 mph - N/A Rain Light Rain
10:54 AM 69.8 °F 69.8 °F 100% 30.13 in 10.0 mi South 6.9 mph - N/A Rain Light Rain
10:56 AM 69.8 °F 69.8 °F 100% 30.13 in 10.0 mi South 4.6 mph - N/A Rain Light Rain
10:58 AM 70.2 °F 69.8 °F 99% 30.14 in 10.0 mi South 8.1 mph - 0.01 in Rain Light Rain
11:55 AM 71.8 °F 71.1 °F 98% 30.13 in 10.0 mi SSE 6.9 mph - 0.01 in   Overcast
12:22 PM 71.6 °F 71.6 °F 100% 30.12 in 10.0 mi South 5.8 mph - N/A   Mostly Cloudy
12:55 PM 73.2 °F 70.7 °F 92% 30.10 in 10.0 mi SSE 6.9 mph - N/A   Scattered Clouds
1:10 PM 73.4 °F 69.8 °F 88% 30.10 in 10.0 mi South 11.5 mph - N/A   Mostly Cloudy
1:19 PM 75.2 °F 69.8 °F 83% 30.10 in 10.0 mi South 10.4 mph - N/A   Mostly Cloudy
1:58 PM 75.7 °F 67.5 °F 75% 30.10 in 10.0 mi South 6.9 mph - N/A   Partly Cloudy
2:51 PM 75.2 °F 68.0 °F 78% 30.08 in 10.0 mi South 9.2 mph - N/A   Mostly Cloudy
2:55 PM 75.2 °F 68.0 °F 78% 30.08 in 10.0 mi South 8.1 mph - N/A   Mostly Cloudy
2:58 PM 75.9 °F 68.7 °F 78% 30.09 in 10.0 mi South 9.2 mph - N/A   Mostly Cloudy
3:58 PM 77.0 °F 68.2 °F 74% 30.06 in 10.0 mi South 5.8 mph - N/A   Scattered Clouds
4:24 PM 77.0 °F 68.0 °F 74% 30.06 in 10.0 mi SW 6.9 mph - N/A Rain Light Rain
4:28 PM 75.2 °F 69.8 °F 83% 30.06 in 10.0 mi SW 10.4 mph - N/A Rain Light Rain
4:32 PM 75.2 °F 68.0 °F 78% 30.06 in 10.0 mi SW 11.5 mph - N/A Rain Light Rain
4:53 PM 73.4 °F 69.8 °F 88% 30.06 in 10.0 mi SW 4.6 mph - N/A   Partly Cloudy
4:55 PM 73.4 °F 69.8 °F 88% 30.06 in 10.0 mi SW 4.6 mph - N/A Rain Light Rain
4:58 PM 73.0 °F 69.1 °F 87% 30.07 in 10.0 mi SW 3.5 mph - 0.00 in Rain Light Rain
5:18 PM 75.2 °F 69.8 °F 83% 30.05 in 10.0 mi Variable 4.6 mph - N/A   Partly Cloudy
5:58 PM 75.6 °F 69.8 °F 82% 30.05 in 10.0 mi South 9.2 mph - 0.00 in   Scattered Clouds
6:08 PM 75.2 °F 69.8 °F 83% 30.05 in 10.0 mi Variable 5.8 mph - N/A   Mostly Cloudy
6:44 PM 75.2 °F 68.0 °F 78% 30.04 in 10.0 mi South 8.1 mph - N/A   Scattered Clouds
6:58 PM 74.1 °F 68.2 °F 82% 30.05 in 10.0 mi South 5.8 mph - N/A   Partly Cloudy
7:48 PM 73.4 °F 68.0 °F 83% 30.05 in 10.0 mi Variable 4.6 mph - N/A   Mostly Cloudy
7:58 PM 72.9 °F 67.8 °F 84% 30.07 in 10.0 mi Variable 6.9 mph - N/A   Mostly Cloudy
8:14 PM 71.6 °F 68.0 °F 88% 30.05 in 10.0 mi South 9.2 mph - N/A   Scattered Clouds
8:58 PM 71.4 °F 68.2 °F 89% 30.07 in 10.0 mi South 4.6 mph - N/A   Scattered Clouds
9:40 PM 71.6 °F 68.0 °F 88% 30.07 in 10.0 mi South 1.2 mph - N/A   Mostly Cloudy
9:58 PM 70.9 °F 68.9 °F 93% 30.07 in 10.0 mi South 1.2 mph - N/A   Mostly Cloudy
10:14 PM 71.6 °F 69.8 °F 94% 30.08 in 10.0 mi SSE 2.3 mph - N/A   Mostly Cloudy
10:16 PM 71.6 °F 69.8 °F 94% 30.08 in 10.0 mi SSE 2.3 mph - N/A   Mostly Cloudy
10:34 PM 69.8 °F 69.8 °F 100% 30.07 in 10.0 mi SSE 3.5 mph - N/A   Mostly Cloudy
10:36 PM 69.8 °F 69.8 °F 100% 30.07 in 10.0 mi SSE 3.5 mph - N/A   Mostly Cloudy
10:52 PM 69.8 °F 69.8 °F 100% 30.07 in 10.0 mi SE 4.6 mph - N/A   Mostly Cloudy
10:58 PM 70.3 °F 69.8 °F 98% 30.07 in 10.0 mi SSE 5.8 mph - N/A   Mostly Cloudy
11:12 PM 69.8 °F 69.8 °F 100% 30.06 in 10.0 mi South 3.5 mph - N/A   Mostly Cloudy
11:14 PM 69.8 °F 69.8 °F 100% 30.06 in 10.0 mi SSE 3.5 mph - N/A   Mostly Cloudy
11:16 PM 69.8 °F 69.8 °F 100% 30.06 in 10.0 mi SSE 4.6 mph - N/A   Mostly Cloudy
11:18 PM 69.8 °F 69.8 °F 100% 30.06 in 10.0 mi SSE 4.6 mph - N/A   Mostly Cloudy
11:26 PM 69.8 °F 69.8 °F 100% 30.06 in 10.0 mi SSE 3.5 mph - N/A   Mostly Cloudy
11:58 PM 70.3 °F 70.0 °F 99% 30.04 in 10.0 mi SSE 3.5 mph - N/A   Overcast